Location: Bonningues
(50.7927°N, 2.0150°E)
Time: 22:02:58
(UTC+00:00)

MOS 1 Rocket - Pass Details

Date: 08 August 2020
Orbit: 614 x 830 km, 97.4° (Epoch: 23 September)

Event Time Altitude Azimuth Distance (km) Brightness Sun altitude
Rises 19:49:36 0° 10° (N) 3,377 7.1 -4.3°
Reaches altitude 10° 19:51:59 10° 8° (N) 2,447 6.5 -4.6°
Maximum altitude 19:57:23 64° 288° (WNW) 916 4.3 -5.3°
Drops below altitude 10° 20:02:42 10° 208° (SSW) 2,406 6.0 -6.0°
Sets 20:05:02 0° 206° (SSW) 3,316 6.7 -6.3°
